Location: Fox Ridge Estates
(40.9153°N, 81.4944°W)
Time: 03:26:33
(UTC+00:00)

Daily predictions for brighter satellites

Satellite Brightness Start Highest point End
(mag) Time Altitude Azimuth Time Altitude Azimuth Time Altitude Azimuth
BREEZE-M DEB (TANK) 3.4 01:15:21 10° S 01:17:56 28° ESE 01:23:42 10° ENE
Cosmos 1697 Rocket 3.7 01:17:20 10° N 01:22:21 31° ENE 01:27:21 10° ESE
Cosmos 2082 Rocket 3.2 01:23:48 10° SSE 01:28:15 25° ESE 01:32:43 10° NE
Hubble Space Telescope 2.9 01:28:38 10° S 01:30:00 11° SSE 01:31:20 10° SSE
Cosmos 1833 Rocket 2.8 01:26:19 10° S 01:31:48 56° ESE 01:37:19 10° NNE
IGS 5A 4.2 01:28:15 10° SE 01:32:03 36° ENE 01:35:52 10° N
Cosmos 1953 Rocket 3.6 01:28:07 10° S 01:32:34 72° E 01:37:04 10° NNE
USA 305 3.0 01:29:23 10° NW 01:33:34 75° SW 01:37:38 11° SE
USA 308 2.9 01:29:26 10° NW 01:33:42 82° SW 01:37:46 11° SE
Cosmos 1606 4.5 01:31:24 10° NNE 01:33:53 17° ENE 01:36:14 11° ESE
SPOT 3 Rocket 4.4 01:29:13 10° SE 01:33:56 36° ENE 01:38:40 10° N
Cosmos 1892 3.4 01:30:19 10° SSW 01:34:03 58° W 01:37:48 10° N
Cosmos 1689 Rocket 4.1 01:31:52 10° N 01:34:21 29° WNW 01:36:48 10° SW
Cosmos 2150 Rocket 4.3 01:30:52 10° NNW 01:36:16 77° WSW 01:41:42 10° SSE
USA 186 3.7 01:33:54 10° SSW 01:36:48 29° W 01:39:35 10° NW
Resurs 1-3 3.6 01:34:54 10° SSE 01:39:16 82° ENE 01:43:41 10° N
Cosmos 2298 Rocket 4.5 01:35:24 10° NNW 01:40:41 65° WSW 01:45:57 10° S
Cosmos 1125 Rocket 3.6 01:36:52 10° NNW 01:42:12 81° WSW 01:47:30 10° SSE
Cosmos 2279 Rocket 4.1 01:40:09 10° N 01:46:18 62° E 01:52:24 10° SSE
Cosmos 1869 4.1 01:47:36 10° NNW 01:51:22 50° W 01:55:04 10° S
Landsat 7 4.0 01:49:11 11° SSE 01:53:37 58° ENE 01:58:18 10° N
COSMOS 2406 3.2 01:49:18 10° SSW 01:54:57 80° ESE 02:00:40 10° NNE
Cosmos 2058 2.8 01:50:59 10° S 01:55:06 72° E 01:59:18 10° NNE
Cosmos 1842 Rocket 4.0 01:51:41 10° N 01:56:00 45° ENE 01:59:20 16° SSE
Cosmos 1825 2.5 01:52:44 10° SSW 01:56:28 68° W 02:00:13 10° N
Cosmos 2369 4.3 01:51:56 10° N 01:57:17 41° ENE 02:01:22 16° SE
USA 306 3.6 01:53:28 10° WNW 01:57:34 47° SW 02:00:51 15° SSE
NOSS 3-4 (A) 3.9 01:52:33 10° SW 01:58:16 62° NW 02:04:24 10° NNE
NOSS 3-4 (C) 3.9 01:52:39 10° SW 01:58:22 62° NW 02:04:31 10° NNE
OBJECT-B 3.5 01:58:33 10° SW 02:00:47 18° W 02:03:02 10° NW
ERS-1 Rocket 4.4 02:00:52 14° ESE 02:03:43 22° ENE 02:07:33 10° NNE
Spot 2 Rocket 4.4 02:01:34 17° ESE 02:04:50 33° ENE 02:09:22 10° N
Cosmos 1076 Rocket 4.0 02:02:51 16° SSE 02:05:57 40° E 02:10:01 10° NNE
Cosmos 1656 4.1 02:00:41 10° NNW 02:06:15 62° WSW 02:11:34 11° S
ATLAS 2AS CENTAUR R/B 3.0 01:59:06 10° SSW 02:07:01 83° ESE 02:14:50 10° NE
Cosmos 1980 Rocket 3.0 02:03:20 10° N 02:08:33 37° ENE 02:12:06 18° ESE
Cosmos 1437 Rocket 3.9 02:06:02 10° NNW 02:09:38 40° W 02:13:17 10° SSW
Resurs 01 Rocket 1.7 02:08:50 12° S 02:12:52 78° WSW 02:17:20 10° NNW
Nadezhda 4 Rocket 4.1 02:07:55 10° SSE 02:13:49 55° E 02:19:51 10° NNE
Cosmos 2322 Rocket 4.5 02:13:48 10° NNE 02:15:10 11° NE 02:16:32 10° ENE
Cosmos 1437 3.0 02:14:52 10° NNW 02:17:35 52° W 02:19:12 20° SSW
RESURS DK-1 2.3 02:18:54 10° S 02:22:58 60° ESE 02:27:05 10° NNE
Cosmos 2098 Rocket 2.1 02:22:42 37° SSE 02:23:33 56° E 02:26:37 10° NNE
GENESIS II 4.4 02:21:03 10° NNW 02:24:54 57° NE 02:26:31 31° ESE
USA 245 4.1 02:22:59 21° SSE 02:26:54 69° ENE 02:31:45 10° N
USA 267 3.4 02:20:37 10° ENE 02:26:55 48° SE 02:33:11 10° SSW
BREEZE-M DEB (TANK) 4.3 02:24:19 10° NW 02:27:45 53° NNE 02:36:57 13° ESE
ATLAS 3B R/B 3.5 02:21:09 10° NNW 02:27:53 44° NE 02:32:46 19° ESE
CENTAUR R/B 4.3 02:21:36 10° NW 02:29:12 38° WSW 02:37:09 10° S
Cosmos 1633 2.4 02:29:09 22° S 02:31:20 87° E 02:34:57 10° N
SPOT 1/Viking Rocket 3.5 02:28:26 21° SSE 02:31:58 89° E 02:37:13 10° NNW
MetOp-B 4.2 02:28:46 18° S 02:32:46 80° WSW 02:38:10 10° NNW
ISS -1.1 02:32:35 10° NNW 02:34:47 16° NNE 02:36:58 10° NE
Cosmos 2360 4.2 02:29:47 10° NNW 02:35:29 80° WSW 02:38:55 25° SSE
Cosmos 44 Rocket 3.9 02:31:07 10° SW 02:36:14 64° NW 02:41:28 10° NNE
ARIANE 5 R/B 2.9 02:38:33 33° SE 02:40:19 56° ENE 02:44:43 10° N
Cosmos 1933 4.1 02:36:38 10° N 02:40:22 34° ENE 02:41:03 32° E
SL-16 R/B 3.9 02:36:39 10° N 02:40:53 21° NE 02:43:41 15° E
Meteor 2-8 Rocket 4.4 02:36:16 10° N 02:42:27 82° E 02:46:14 25° SSE
SPOT 5 2.9 02:44:08 36° ESE 02:45:26 48° ENE 02:49:37 10° N
CZ-2C R/B 4.1 02:44:52 10° N 02:49:22 61° WNW 02:53:38 11° SSW
OAO 2 Rocket 4.0 02:48:26 10° WSW 02:52:54 33° SSW 02:53:28 32° S
Cosmos 2221 3.8 02:49:18 10° NNW 02:53:15 37° W 02:56:12 16° SSW
CARTOSAT-1 3.5 02:51:42 39° S 02:53:18 87° WSW 02:57:39 10° NNW
Cosmos 371 Rocket 3.2 02:59:01 10° NNW 03:03:50 77° ENE 03:05:07 48° SE
Cosmos 923 Rocket 4.4 03:03:16 40° SE 03:04:02 43° ESE 03:09:04 10° NNE
Terra 2.0 03:04:43 45° ESE 03:05:51 58° ENE 03:10:32 10° N
ERBS 2.3 03:02:42 10° NW 03:05:39 73° NW 03:05:39 73° NW
Cosmos 1697 Rocket 3.7 03:01:09 10° NW 03:06:21 38° WSW 03:09:29 21° SSW
Cosmos 1606 4.3 03:06:20 10° NNW 03:09:37 29° W 03:11:14 21° SW
Cosmos 2082 Rocket 3.2 03:06:37 10° SW 03:11:59 46° WNW 03:17:26 10° NNE
Cosmos 2278 3.7 03:08:49 10° NNW 03:14:30 82° WSW 03:16:22 44° SSE
Cosmos 1766 Rocket 3.8 03:18:52 51° E 03:18:52 51° E 03:23:04 10° NNE
BREEZE-M R/B 4.2 03:14:07 10° SW 03:23:48 - ENE 03:17:24 27° SSW
Cosmos 1812 4.2 03:16:43 10° NNE 03:19:23 25° ENE 03:19:23 25° ENE
Cosmos 2195 Rocket 4.5 03:16:45 28° SSW 03:20:12 80° W 03:26:21 10° N
Cosmos 1782 2.9 03:19:25 10° N 03:23:15 63° ENE 03:23:15 63° ENE
Cosmos 2151 4.0 03:23:49 27° SW 03:25:39 42° WNW 03:29:42 10° N
Cosmos 2360 Rocket 3.8 03:26:47 10° N 03:31:13 23° NE 03:33:01 20° E
Cosmos 1092 Rocket 4.4 03:29:20 23° SSW 03:33:14 60° W 03:39:29 10° N
GP-B 3.8 03:29:24 10° N 03:33:41 49° W 03:34:52 38° SW
Cosmos 1328 Rocket 3.9 03:29:54 10° N 03:34:03 50° ENE 03:34:03 50° ENE
Cosmos 2112 Rocket 4.1 03:38:50 57° ESE 03:38:52 57° ESE 03:44:03 10° NNE
Cosmos 332 Rocket 3.7 03:34:16 10° NNW 03:39:11 83° WSW 03:39:38 72° S
Meteor 2-3 Rocket 4.3 03:36:27 26° SW 03:39:30 54° WNW 03:45:05 10° N
Cosmos 1680 Rocket 3.4 03:40:31 67° SE 03:40:56 70° ESE 03:46:12 10° NNE
ERS-1 Rocket 3.8 03:40:52 36° SW 03:42:12 44° W 03:47:00 10° NNW
Cosmos 1809 Rocket 4.3 03:41:14 50° S 03:43:01 86° E 03:49:12 10° N
Cosmos 1151 Rocket 3.0 03:40:31 10° N 03:44:42 82° N 03:44:42 82° N
Okean 3 Rocket 3.6 03:50:13 74° W 03:50:17 74° W 03:54:47 10° N
Cosmos 1980 Rocket 3.4 03:47:31 10° NW 03:52:24 31° WSW 03:53:52 27° SW
BREEZE-M DEB (TANK) 3.4 03:48:39 10° WNW 03:52:43 78° SSW 03:55:45 42° SE
BREEZE M DEB (TANK) 4.1 03:49:51 10° WSW 03:53:57 86° NNW 04:23:03 10° ENE
H-2A R/B 4.0 03:55:41 10° N 03:59:46 52° WNW 03:59:53 52° W
Cosmos 2322 Rocket 2.2 03:54:48 10° NNW 04:00:25 63° ENE 04:00:59 59° E
Cosmos 1271 Rocket 4.2 03:59:53 10° NNW 04:03:10 31° W 04:03:10 31° W
Meteor 2-21 Rocket 4.3 04:08:05 65° S 04:09:05 87° E 04:15:19 10° N
USA 267 4.0 04:03:37 10° NE 04:09:56 53° NNW 04:16:14 10° WSW
Meteor 2-6 Rocket 3.9 04:04:57 10° N 04:10:25 87° W 04:10:37 83° SSW
ISS -1.5 04:08:54 10° NW 04:10:35 25° NNW 04:10:35 25° NNW
Cosmos 2315 Rocket 4.4 04:10:52 10° N 04:16:55 46° ENE 04:17:33 45° E
ATLAS 3B R/B 3.4 04:11:55 10° NW 04:18:39 44° WSW 04:20:00 40° SW
Cosmos 2237 4.2 04:14:24 10° NNW 04:20:07 69° ENE 04:20:24 67° E
Spot 4 4.1 04:22:24 62° NE 04:22:24 62° NE 04:26:42 10° N
Cosmos 1743 Rocket 4.4 04:23:27 45° NNE 04:23:27 45° NNE 04:26:42 10° NNE
Cosmos 1624 Rocket 4.0 04:17:14 10° NNW 04:22:13 73° NE 04:22:13 73° NE
Meteor 1-27 Rocket 4.0 04:16:57 10° N 04:22:28 54° ENE 04:22:32 54° E
Cosmos 2228 Rocket 4.4 04:19:29 10° N 04:22:34 32° NE 04:22:34 32° NE
Cosmos 1408 Rocket 4.2 04:25:28 52° NW 04:25:28 52° NW 04:29:08 10° N
SL-16 R/B 2.3 04:19:51 10° NNW 04:25:28 63° WSW 04:25:32 63° WSW
Cosmos 2219 Rocket 3.7 04:23:40 10° N 04:28:18 26° NE 04:29:33 24° ENE
Cosmos 1553 Rocket 4.5 04:26:41 10° NNW 04:32:27 47° W 04:33:26 43° WSW
Cosmos 1655 Rocket 4.0 04:32:56 62° SW 04:33:55 73° W 04:40:19 10° N
Cosmos 1420 Rocket 4.2 04:32:13 10° NNW 04:37:14 66° NE 04:37:14 66° NE
Cosmos 2266 Rocket 3.9 04:37:31 69° SW 04:38:06 75° W 04:44:18 10° N
Meteor 1-10 Rocket 4.3 04:33:35 10° NNW 04:39:04 66° W 04:39:04 66° W
USA 234 3.1 04:41:00 64° SE 04:42:10 87° NE 04:48:45 10° NW
COSMOS 2455 3.4 04:44:29 44° E 04:44:29 44° E 04:49:10 10° NE
Terra 4.1 04:43:36 14° W 04:43:57 14° W 04:46:32 10° WNW
COBE Rocket 4.4 04:44:51 51° NW 04:44:51 51° NW 04:48:36 10° NNW
Sich 1 4.5 04:45:43 32° NE 04:45:43 32° NE 04:48:21 10° NNE
BREEZE-M DEB (TANK) 4.2 04:32:25 10° SW 04:47:27 74° SSE 04:51:54 10° ENE
Cosmos 1452 Rocket 4.2 04:47:12 10° N 04:52:03 45° ENE 04:52:03 45° ENE
Meteor 1-20 Rocket 4.5 04:53:51 57° ENE 04:53:51 57° ENE 04:58:46 10° NNE
ALOS 2 3.5 04:56:16 47° N 04:56:16 47° N 04:59:27 10° N
Cosmos 883 Rocket 4.4 04:51:22 10° NNW 04:57:32 72° W 04:57:48 71° WSW
Cosmos 2056 Rocket 4.2 04:56:12 10° NNW 05:00:39 46° WNW 05:00:39 46° WNW
Cosmos 972 Rocket 4.2 05:02:20 74° NNE 05:02:20 74° NNE 05:07:03 10° NNE
ATLAS 5 CENTAUR R/B 4.1 05:04:13 10° NNW 05:08:45 25° NE 05:12:56 13° E
Cosmos 2333 Rocket 2.4 05:04:08 10° NNW 05:09:38 64° NE 05:09:38 64° NE
Cosmos 2360 Rocket 2.7 05:10:04 10° NNW 05:14:45 50° WNW 05:14:45 50° WNW
Meteor 1-25 Rocket 4.2 05:17:03 77° N 05:17:03 77° N 05:22:14 10° N
Nadezhda 2 Rocket 4.4 05:20:58 85° SW 05:21:06 87° W 05:27:30 10° N
Cosmos 2322 3.7 05:19:14 10° NNW 05:24:37 77° NNE 05:24:37 77° NNE
NOSS 3-1 (C) 4.1 05:21:09 10° NNW 05:28:52 80° NE 05:31:18 52° SE
Meteor 1-19 Rocket 4.3 05:26:28 10° N 05:31:45 73° NNE 05:31:45 73° NNE
Cosmos 2297 Rocket 3.6 05:37:04 27° E 05:37:04 27° E 05:40:53 10° NE
USA 229 DEB 4.2 05:32:57 10° NNW 05:40:16 62° NE 05:43:12 39° ESE
USA 229 4.2 05:33:03 10° NNW 05:40:21 61° NE 05:43:21 38° ESE
Cosmos 2237 Rocket 3.7 05:37:47 10° N 05:42:45 30° ENE 05:44:36 25° E
Cosmos 2322 Rocket 4.2 05:40:16 10° WNW 05:42:47 17° W 05:42:47 17° W
Cosmos 2227 Rocket 3.7 05:47:43 25° E 05:47:43 25° E 05:51:33 10° NE
PSLV R/B 4.4 05:44:27 10° NNE 05:48:12 55° N 05:48:12 55° N
Cosmos 2285 Rocket 4.3 05:52:29 10° NNW 05:58:13 54° W 05:58:13 54° W
Meteor 2-4 Rocket 3.8 05:54:16 10° N 06:00:13 77° E 06:00:14 77° E
NOSS 3-1 (A) 4.1 05:53:02 10° NNW 06:00:45 79° NE 06:04:02 43° SE
CZ-2D R/B 3.9 05:56:54 10° NE 06:00:58 21° E 06:01:02 21° E
COSMOS 2428 3.0 06:01:30 10° NNW 06:06:19 58° WNW 06:06:19 58° WNW
Cosmos 2219 Rocket 3.0 06:07:07 10° NW 06:11:15 40° WNW 06:11:15 40° WNW
Meteor 1-5 Rocket 4.2 06:13:34 82° NNW 06:13:34 82° NNW 06:19:08 10° N
Cosmos 1933 Rocket 4.4 06:16:00 49° NNE 06:16:00 49° NNE 06:19:18 10° N
Thor Agena Rocket 4.3 06:10:52 10° N 06:15:18 41° WNW 06:15:18 41° WNW
Helios 1A 4.2 06:17:20 38° NE 06:17:20 38° NE 06:20:41 10° N
APEX 4.2 06:20:03 73° NW 06:20:03 73° NW 06:26:11 10° NNE
Okean 1-7 4.1 06:17:49 10° N 06:20:56 42° NNE 06:20:56 42° NNE
Meteor 2-17 Rocket 4.3 06:23:27 76° WSW 06:23:38 77° W 06:29:42 10° N
Cosmos 1302 Rocket 4.1 06:18:38 10° NNW 06:23:41 68° ENE 06:23:41 68° ENE
COSMOS 2455 4.2 06:27:36 25° W 06:29:33 30° NW 06:34:48 10° NNE
Cosmos 909 Rocket 4.1 06:32:17 61° SE 06:32:57 65° ESE 06:40:08 10° NE
Cosmos 2219 3.2 06:34:37 73° ESE 06:34:38 73° ESE 06:40:23 10° NNE
Cosmos 1709 Rocket 3.8 06:37:29 73° SW 06:38:03 80° W 06:44:27 10° N
NOSS 0 Rocket 3.8 06:32:28 10° NNW 06:38:37 68° WSW 06:38:37 68° WSW
Helios 1B rocket 4.3 06:35:54 10° NE 06:38:41 23° E 06:38:41 23° E
Cosmos 1066 Rocket 4.4 06:35:03 10° N 06:40:54 68° ENE 06:41:47 59° SE
Timation 2 Rocket 3.9 06:46:12 61° SE 06:46:40 64° ESE 06:52:39 10° NNE
MOZ.5/SAFIR/RUBIN 5/SL-8 3.9 06:47:17 73° N 06:47:17 73° N 06:51:34 10° NNW
Cosmos 2084 Rocket 4.3 06:48:11 10° NNW 06:52:19 48° NE 06:52:38 47° ENE
Cosmos 2333 Rocket 4.2 06:49:52 10° WNW 06:51:37 15° WNW 06:51:37 15° WNW
ATLAS 5 CENTAUR R/B 2.3 06:48:02 10° NW 06:53:51 73° WSW 06:54:21 69° SSW
Cosmos 2082 4.2 06:54:29 47° SE 06:55:04 48° ESE 07:00:33 10° NE
Cosmos 2251 Rocket 4.1 06:56:04 44° ESE 06:56:27 45° ESE 07:01:28 10° NNE
Cosmos 1703 Rocket 4.5 06:52:20 10° NNW 06:55:22 40° NW 06:55:22 40° NW
Meteor 1-11 Rocket 3.6 06:56:39 72° WSW 06:56:54 74° W 07:02:27 10° N
Cosmos 1536 3.8 06:58:20 45° NNW 06:58:20 45° NNW 07:01:14 10° N
Lacrosse 5 1.8 06:57:56 82° ENE 06:57:56 82° ENE 07:02:49 10° NE
Cosmos 2184 Rocket 4.4 06:59:24 43° SE 07:01:05 56° E 07:07:12 10° NNE
SL-16 R/B 2.6 07:00:09 43° SE 07:02:15 72° ENE 07:08:24 10° N
Cosmos 1980 3.8 06:57:11 10° NNW 07:02:27 59° W 07:02:27 59° W
Resurs 1-4 Rocket 2.0 06:57:39 10° NNE 07:03:00 79° ESE 07:03:26 73° SSE
Cosmos 1733 Rocket 3.7 07:13:20 46° ESE 07:13:38 47° E 07:17:56 10° NNE
Cosmos 2297 Rocket 2.9 07:18:52 37° W 07:19:56 41° WNW 07:25:17 10° N
AQUA 3.8 07:16:33 10° NNE 07:21:19 74° ESE 07:21:46 68° SSE
NPP 3.5 07:17:46 10° NNE 07:23:11 87° WNW 07:24:07 63° SSW
Cosmos 2074 Rocket 3.9 07:23:14 51° S 07:24:57 89° E 07:31:12 10° N
Cosmos 2237 Rocket 2.8 07:21:37 10° NW 07:26:22 39° W 07:26:22 39° W
ASTEX 1 4.2 07:29:44 36° WNW 07:29:44 36° WNW 07:33:50 10° NNW
Cosmos 2227 Rocket 2.8 07:29:32 39° W 07:30:43 44° WNW 07:36:08 10° NNE
ADEOS Rocket 2.7 07:29:11 43° SSE 07:31:10 88° ENE 07:36:41 10° NNW
Cosmos 1743 3.9 07:39:45 33° NW 07:39:45 33° NW 07:42:38 10° N
CZ-2D R/B 2.5 07:36:03 10° N 07:41:13 49° WNW 07:42:21 42° WSW
Cosmos 192 4.3 07:36:49 10° NNW 07:41:46 80° ENE 07:43:44 37° SSE
Cosmos 2181 Rocket 4.4 07:36:12 10° NNW 07:42:08 43° W 07:43:19 39° WSW
Meteor 1-28 Rocket 4.0 07:41:29 38° ESE 07:42:26 48° ENE 07:46:03 10° N
ADEOS II 2.0 07:37:56 10° NNE 07:43:13 85° ESE 07:44:44 48° S
Meteor 2-9 Rocket 4.0 07:43:10 46° S 07:44:47 81° E 07:50:08 10° NNE
NOSS 3-3 (A) 4.5 07:44:35 32° SSE 07:46:38 46° ESE 07:52:33 10° NE
NOSS 3-3 (C) 4.5 07:44:42 32° SSE 07:46:45 45° ESE 07:52:38 10° NE
IRS-1D 3.6 07:42:04 10° NNE 07:47:01 67° ESE 07:48:42 41° S
SL-16 R/B 2.1 07:45:17 10° NNW 07:50:57 76° WSW 07:53:47 31° S
Cosmos 614 Rocket 4.0 07:50:06 49° SW 07:51:20 66° WNW 07:56:32 10° NNE
Iridium 4 Rocket 3.8 07:47:08 10° N 07:52:42 79° E 07:55:47 29° S
MINOTAUR 4 R/B 3.9 07:55:21 79° SSE 07:55:33 86° ENE 07:59:08 10° NNW
Cosmos 2263 Rocket 2.6 07:54:29 31° S 07:57:00 56° ESE 08:02:33 10° NNE
Cosmos 1975 2.7 07:57:17 64° SSW 07:57:51 82° W 08:01:57 10° N
ATLAS CENTAUR R/B 2.8 07:57:40 22° SE 07:58:30 24° ESE 08:01:39 10° ENE
Cosmos 2221 Rocket 3.8 07:56:25 10° NNW 08:00:51 52° W 08:01:25 48° WSW
Landsat 4 3.5 07:58:00 10° NNE 08:01:43 86° ESE 08:02:12 65° S
CZ-4C R/B 3.6 07:54:45 10° NNW 08:02:00 59° NE 08:10:19 10° SE
Cosmos 407 Rocket 3.6 08:01:06 37° S 08:03:14 77° ESE 08:08:32 10° NNE
Cosmos 1461 3.0 08:05:09 48° SSW 08:06:25 85° ESE 08:10:56 10° NNE
Cosmos 1707 3.2 08:04:14 10° N 08:08:01 57° E 08:10:01 25° SSE
Cosmos 2344 3.5 08:04:50 29° SSW 08:09:00 76° ESE 08:16:36 10° NE
Meteor 1-29 3.1 08:07:33 10° N 08:10:46 51° WNW 08:10:46 51° WNW
Cosmos 2341 Rocket 4.2 08:06:43 20° S 08:11:06 69° E 08:17:17 10° NNE
Helios 1B rocket 3.6 08:10:55 10° N 08:14:24 27° WNW 08:14:58 26° W
Cosmos 1674 Rocket 3.6 08:12:43 10° NNW 08:17:05 62° W 08:18:38 37° SSW
Cosmos 1238 Rocket 2.5 08:18:43 50° WNW 08:18:43 50° WNW 08:21:54 10° N
Cosmos 1842 3.9 08:18:42 10° NNW 08:22:14 34° W 08:22:21 34° W
Nadezhda 3 Rocket 4.1 08:16:26 10° NNW 08:22:40 58° W 08:26:34 23° SSW
Cosmos 1943 3.9 08:24:52 10° NNW 08:30:30 56° ENE 08:36:05 10° SE
BREEZE-M DEB (TANK) 2.6 08:30:27 45° W 08:31:04 66° NNW 08:33:19 10° NE
IRS-P3 4.2 08:26:54 10° NNE 08:32:15 77° ESE 08:36:16 18° S
IDEFIX/ARIANE 42P 2.7 08:28:26 10° N 08:33:32 60° WNW 08:36:25 26° SW
CBERS-1 4.2 08:28:37 10° N 08:33:39 57° WNW 08:36:24 26° SW
Cosmos 1975 Rocket 4.0 08:31:05 10° N 08:35:21 47° E 08:39:33 10° SSE
ATLAS 5 CENTAUR R/B 4.4 08:35:36 10° W 08:35:47 10° W 08:35:47 10° W
Cosmos 1378 Rocket 4.0 08:34:06 10° NNW 08:38:12 40° W 08:39:54 28° SW
CZ-2C R/B 3.7 08:34:09 10° NNE 08:38:19 34° E 08:42:29 10° SSE
Cosmos 1340 3.4 08:36:32 10° N 08:40:13 53° ENE 08:43:53 10° SSE
Lacrosse 5 3.7 08:37:13 10° W 08:41:16 23° NNW 08:45:20 10° NNE
Resurs 1-4 Rocket 4.1 08:39:23 10° NNW 08:42:06 14° WNW 08:44:30 11° W
USA 215 3.6 08:36:32 10° NE 08:42:58 58° SE 08:47:58 17° SSW
Cosmos 1400 Rocket 3.8 08:40:33 11° SSE 08:44:07 44° E 08:47:50 10° NNE
Cosmos 1908 Rocket 3.9 08:42:20 27° SW 08:44:20 46° WNW 08:48:31 10° N
Cosmos 1626 3.7 08:41:02 10° N 08:44:28 35° ENE 08:47:51 10° SE
Cosmos 1356 Rocket 4.2 08:44:46 26° WSW 08:46:14 34° WNW 08:49:56 10° N
SL-16 R/B 3.9 08:45:15 16° WSW 08:46:23 17° W 08:50:19 10° NW
Meteor 1-12 Rocket 4.3 08:45:08 11° S 08:50:32 80° E 08:56:15 10° NNE
Cosmos 1674 2.7 08:46:47 10° N 08:50:38 81° E 08:54:27 10° S
BREEZE-M DEB (TANK) 4.0 08:45:45 13° WSW 08:54:45 58° NNW 08:58:00 10° NE
Cosmos 1190 Rocket 4.4 08:51:32 21° SW 08:54:55 51° WNW 09:00:06 10° N
SL-8 R/B 4.1 08:53:11 17° W 08:56:49 60° NNW 09:01:36 10° ENE
Cosmos 1140 Rocket 4.2 08:54:55 19° WSW 08:58:08 38° WNW 09:03:02 10° N
MSX 4.3 09:00:08 10° N 09:05:34 46° WNW 09:10:10 14° SW
CZ-4B R/B 3.3 09:01:16 10° N 09:06:08 76° WNW 09:10:43 11° SSW
ASTRO E2 4.2 09:05:37 16° SSW 09:07:11 20° S 09:10:09 10° SE
CZ-4C R/B 4.1 09:04:26 15° SSW 09:07:20 34° W 09:11:13 10° NNW
Cosmos 1954 Rocket 4.2 09:04:41 15° SSW 09:09:02 62° WNW 09:14:20 10° NNE
Cosmos 44 3.3 09:04:02 10° NW 09:09:13 67° WSW 09:14:02 10° SSE
Cosmos 1025 Rocket 3.5 09:05:05 10° N 09:09:23 62° E 09:13:40 10° SSE
BREEZE-M DEB (TANK) 2.9 09:07:18 10° WNW 09:10:19 58° NNE 09:13:33 10° E
Cosmos 1844 Rocket 3.6 09:05:19 10° S 09:10:39 46° ESE 09:16:03 10° NE
ARIANE 5 R/B 2.7 09:05:43 10° N 09:10:47 59° WNW 09:15:41 11° SSW
FENGYUN 3A 4.1 09:12:29 10° NNE 09:17:53 64° ESE 09:23:14 10° S
Cosmos 1603 3.7 09:12:28 10° NNW 09:17:59 59° WSW 09:23:31 10° S
CZ-2D R/B 3.5 09:14:38 10° N 09:18:34 57° WNW 09:22:32 10° SSW
Milstar 3 4.1 09:15:44 11° SW 09:20:38 23° SSE 09:26:00 10° ESE
ADEOS II 4.1 09:19:48 10° NNW 09:22:10 13° WNW 09:24:31 10° W
Spot 4 Rocket 4.0 09:17:57 10° N 09:23:07 77° WNW 09:28:16 10° SSW
Okean 2 Rocket 3.3 09:19:13 10° S 09:23:42 77° E 09:28:15 10° N
CZ-2C R/B 2.8 09:21:38 10° NNE 09:25:21 79° ESE 09:29:07 10° S
Sich 1 Rocket 3.6 09:25:26 10° SSW 09:29:46 63° W 09:34:09 10° N
Cosmos 1805 3.8 09:26:43 10° SSW 09:30:24 41° WNW 09:34:08 10° N
MOS 1 Rocket 3.9 09:27:10 10° SSE 09:32:10 73° ENE 09:37:28 10° N
ATLAS CENTAUR R/B 2.5 09:33:58 10° WSW 09:37:14 27° NW 09:40:40 10° NNE
CZ-3 R/B 4.2 09:15:06 11° SW 09:37:25 32° S 09:45:21 10° ESE
ATLAS 2AS CENTAUR R/B 4.4 09:33:53 10° NNW 09:40:41 39° NE 09:46:57 10° ESE
Cosmos 1346 Rocket 2.9 09:37:02 10° N 09:40:58 80° E 09:44:51 10° SSE
Cosmos 2263 Rocket 3.7 09:36:50 10° WSW 09:41:17 23° NW 09:45:47 10° N
Cosmos 2151 Rocket 3.6 09:38:16 10° S 09:42:39 84° W 09:47:05 10° N
PAYLOAD A 4.5 09:39:03 10° N 09:44:18 50° WNW 09:49:26 10° SW
SL-14 R/B 3.3 09:40:41 10° NNW 09:44:32 63° W 09:48:24 10° S
Cosmos 1726 2.8 09:41:01 10° S 09:44:35 56° E 09:48:11 10° NNE
